N1YZ Weather Reports


Display with metric or nautical units.
time (UTC)temp
F
wind
direction
speed
MPH
gust
MPH
rain 1hr
in
rain 24hr
in
rain mn
in
humidity
%
barometer
mb
20260903072016 78 352 0.0 0.0 0.00 0.00 0.00 91 1036.0
20260903071513 78 352 0.0 0.0 0.00 0.00 0.00 91 1036.0
20260903071013 78 352 0.0 0.0 0.00 0.00 0.00 90 1035.8
20260903070513 78 352 0.0 0.0 0.00 0.00 0.00 90 1036.0
20260903070008 78 352 0.0 0.0 0.00 0.00 0.00 90 1036.0
20260903065503 78 352 0.0 0.0 0.00 0.00 0.00 90 1036.0
20260903065001 78 352 0.0 0.0 0.00 0.00 0.00 90 1035.8
20260903064456 78 352 0.0 0.0 0.00 0.00 0.00 90 1036.1
20260903063952 78 352 0.0 0.0 0.00 0.00 0.00 90 1036.1
20260903063447 78 352 0.0 0.0 0.00 0.00 0.00 90 1036.1
20260903062942 78 352 0.0 0.0 0.00 0.00 0.00 90 1036.2
20260903062437 78 352 0.0 0.0 0.00 0.00 0.00 89 1036.3
20260903061932 79 352 0.0 0.0 0.00 0.00 0.00 89 1036.3
20260903061432 79 352 0.0 0.0 0.00 0.00 0.00 89 1036.4
20260903060927 79 352 0.0 0.0 0.00 0.00 0.00 89 1036.3
20260903060422 79 351 0.0 0.0 0.00 0.00 0.00 88 1036.3
20260903055921 79 353 0.0 0.0 0.00 0.00 0.00 88 1036.1
20260903055419 79 353 0.0 0.0 0.00 0.00 0.00 88 1036.2
20260903054913 79 353 0.0 0.0 0.00 0.00 0.00 87 1036.1
20260903054408 79 353 0.0 0.0 0.00 0.00 0.00 87 1036.1
20260903053904 79 353 0.0 0.0 0.00 0.00 0.00 87 1036.1
20260903053359 79 352 0.0 0.0 0.00 0.00 0.00 86 1036.3
20260903052855 80 352 0.0 0.0 0.00 0.00 0.00 86 1036.4
20260903052350 80 349 0.0 0.0 0.00 0.00 0.00 86 1036.3
20260903051846 80 288 0.0 0.0 0.00 0.00 0.00 86 1036.3
20260903051341 80 305 0.0 0.0 0.00 0.00 0.00 86 1036.1
20260903050837 80 324 0.0 0.0 0.00 0.00 0.00 86 1036.3
20260903050335 80 298 0.0 1.0 0.00 0.00 0.00 86 1036.1
20260903045830 80 3 0.0 0.0 0.00 0.00 0.00 85 1036.1
20260903045326 80 19 0.0 0.0 0.00 0.00 0.00 85 1036.2
20260903044823 80 19 0.0 0.0 0.00 0.00 0.00 85 1036.2
20260903044318 80 19 0.0 0.0 0.00 0.00 0.00 85 1036.1
20260903043814 81 20 0.0 0.0 0.00 0.00 0.00 84 1036.0
20260903043314 81 20 0.0 0.0 0.00 0.00 0.00 83 1036.0
20260903042813 81 20 0.0 0.0 0.00 0.00 0.00 82 1036.1
20260903042308 82 20 0.0 0.0 0.00 0.00 0.00 82 1036.0
20260903041804 81 333 0.0 0.0 0.00 0.00 0.00 83 1036.1
20260903041301 81 10 0.0 0.0 0.00 0.00 0.00 83 1036.1
20260903040801 81 10 0.0 0.0 0.00 0.00 0.00 82 1036.3
20260903040300 81 10 0.0 0.0 0.00 0.00 0.00 82 1036.1
20260903035756 81 9 0.0 0.0 0.00 0.00 0.00 81 1036.5
20260903035252 81 10 0.0 0.0 0.00 0.00 0.00 81 1036.2
20260903034747 81 10 0.0 0.0 0.00 0.00 0.00 80 1036.2
20260903034242 81 10 0.0 0.0 0.00 0.00 0.00 80 1036.3
20260903033737 82 10 0.0 0.0 0.00 0.00 0.00 79 1036.3
20260903033232 82 10 0.0 0.0 0.00 0.00 0.00 78 1036.2
20260903032726 83 10 0.0 0.0 0.00 0.00 0.00 78 1036.0
20260903032222 83 10 0.0 0.0 0.00 0.00 0.00 76 1036.4
20260903031718 84 11 0.0 0.0 0.00 0.00 0.00 75 1036.4
20260903031211 84 2 0.0 0.0 0.00 0.00 0.00 74 1036.2
20260903030708 84 339 0.0 0.0 0.00 0.00 0.00 74 1036.3
20260903030203 84 322 0.0 0.0 0.00 0.00 0.00 75 1036.1
20260903025658 84 302 0.0 0.0 0.00 0.00 0.00 75 1036.3
20260903025154 83 329 0.0 0.0 0.00 0.00 0.00 76 1036.3
20260903024649 84 259 0.0 0.0 0.00 0.00 0.00 76 1036.0
20260903024148 85 272 1.0 1.0 0.00 0.00 0.00 73 1036.1
20260903023644 85 347 0.0 0.0 0.00 0.00 0.00 71 1036.1
20260903023143 85 353 0.0 0.0 0.00 0.00 0.00 72 1036.1
20260903022638 85 353 0.0 0.0 0.00 0.00 0.00 72 1036.1
20260903022138 85 353 0.0 0.0 0.00 0.00 0.00 72 1036.2
20260903021638 85 353 0.0 0.0 0.00 0.00 0.00 71 1036.1
20260903021132 85 353 0.0 0.0 0.00 0.00 0.00 71 1036.3
20260903020627 85 353 0.0 0.0 0.00 0.00 0.00 71 1035.9
20260903020122 85 353 0.0 0.0 0.00 0.00 0.00 71 1036.1
20260903015617 85 353 0.0 0.0 0.00 0.00 0.00 70 1036.1
20260903015112 85 354 0.0 0.0 0.00 0.00 0.00 71 1036.0
20260903014607 85 354 0.0 0.0 0.00 0.00 0.00 70 1036.1
20260903014106 86 354 0.0 0.0 0.00 0.00 0.00 70 1035.7
20260903013601 86 354 0.0 0.0 0.00 0.00 0.00 70 1035.5
20260903013056 86 354 0.0 0.0 0.00 0.00 0.00 69 1035.8
20260903012555 86 354 0.0 0.0 0.00 0.00 0.00 69 1035.7
20260903012049 86 354 0.0 0.0 0.00 0.00 0.00 69 1035.6
20260903011548 86 354 0.0 0.0 0.00 0.00 0.00 69 1035.5
20260903011038 86 354 0.0 0.0 0.00 0.00 0.00 69 1035.7
20260903010533 86 354 0.0 0.0 0.00 0.00 0.00 69 1035.7
20260903010032 87 354 0.0 0.0 0.00 0.00 0.00 68 1035.3
20260903005532 87 354 0.0 0.0 0.00 0.00 0.00 68 1035.4
20260903005027 87 354 0.0 0.0 0.00 0.00 0.00 68 1035.3
20260903004527 87 354 0.0 0.0 0.00 0.00 0.00 67 1035.3
20260903004023 87 355 0.0 0.0 0.00 0.00 0.00 67 1035.2
20260903003518 87 355 0.0 0.0 0.00 0.00 0.00 66 1035.3
20260903003013 88 355 0.0 0.0 0.00 0.00 0.00 66 1035.4
20260903002513 88 355 0.0 0.0 0.00 0.00 0.00 65 1035.4
20260903002007 88 355 0.0 0.0 0.00 0.00 0.00 64 1035.1
20260903001502 89 355 0.0 0.0 0.00 0.00 0.00 63 1035.5
20260903000956 89 355 0.0 0.0 0.00 0.00 0.00 63 1035.4
20260903000454 89 355 0.0 0.0 0.00 0.00 0.00 62 1035.4
20260902235950 90 6 0.0 0.0 0.00 0.00 0.00 61 1035.6
20260902235444 90 5 0.0 0.0 0.00 0.00 0.00 60 1035.3
20260902234938 91 5 0.0 0.0 0.00 0.00 0.00 58 1035.4
20260902234433 91 7 0.0 0.0 0.00 0.00 0.00 58 1035.3
20260902233927 91 352 0.0 0.0 0.00 0.00 0.00 57 1035.4
20260902233421 91 323 0.0 0.0 0.00 0.00 0.00 58 1035.2
20260902232920 91 354 0.0 0.0 0.00 0.00 0.00 57 1035.0
20260902232415 91 355 0.0 0.0 0.00 0.00 0.00 57 1035.2
20260902231915 92 2 0.0 0.0 0.00 0.00 0.00 57 1035.1
20260902231410 92 0 0.0 0.0 0.00 0.00 0.00 57 1035.3
20260902230905 93 1 0.0 0.0 0.00 0.00 0.00 56 1035.3
20260902230404 93 26 0.0 0.0 0.00 0.00 0.00 55 1035.1
20260902225858 93 17 0.0 0.0 0.00 0.00 0.00 55 1035.1
20260902225353 93 21 0.0 0.0 0.00 0.00 0.00 56 1035.0
20260902224852 93 353 0.0 0.0 0.00 0.00 0.00 57 1035.1
20260902224347 93 13 0.0 0.0 0.00 0.00 0.00 58 1035.3
20260902223844 92 11 0.0 0.0 0.00 0.00 0.00 58 1035.1
20260902223343 92 27 0.0 0.0 0.00 0.00 0.00 59 1035.2
20260902222837 92 12 0.0 0.0 0.00 0.00 0.00 58 1035.4
20260902222336 92 291 0.0 0.0 0.00 0.00 0.00 57 1035.5
20260902221831 93 32 0.0 0.0 0.00 0.00 0.00 56 1035.2
20260902221330 92 358 0.0 0.0 0.00 0.00 0.00 56 1035.5
20260902220826 93 6 0.0 0.0 0.00 0.00 0.00 55 1035.4
20260902220325 93 33 0.0 0.0 0.00 0.00 0.00 54 1035.2
20260902215820 93 2 0.0 0.0 0.00 0.00 0.00 53 1035.2
20260902215315 93 3 0.0 0.0 0.00 0.00 0.00 53 1035.4
20260902214811 93 25 0.0 1.0 0.00 0.00 0.00 53 1035.2
20260902214310 94 359 0.0 0.0 0.00 0.00 0.00 54 1035.4
20260902213806 95 73 1.0 1.0 0.00 0.00 0.00 49 1035.1
20260902213300 94 20 0.0 1.0 0.00 0.00 0.00 51 1035.6
20260902212759 94 14 0.0 0.0 0.00 0.00 0.00 52 1035.3
20260902212256 94 5 1.0 1.0 0.00 0.00 0.00 53 1035.3
20260902211751 94 16 0.0 0.0 0.00 0.00 0.00 52 1035.4
20260902211247 93 7 0.0 0.0 0.00 0.00 0.00 51 1035.2
20260902210742 94 18 0.0 0.0 0.00 0.00 0.00 53 1035.3
20260902210237 94 20 0.0 0.0 0.00 0.00 0.00 50 1035.4
20260902205735 94 32 0.0 0.0 0.00 0.00 0.00 47 1035.6
20260902205230 95 30 0.0 0.0 0.00 0.00 0.00 50 1035.5
20260902204726 95 20 0.0 0.0 0.00 0.00 0.00 48 1035.7
20260902204221 96 44 0.0 1.0 0.00 0.00 0.00 46 1035.7
20260902203716 96 355 0.0 0.0 0.00 0.00 0.00 49 1035.5
20260902203215 96 21 0.0 0.0 0.00 0.00 0.00 50 1035.6
20260902202710 95 69 0.0 0.0 0.00 0.00 0.00 49 1035.7
20260902202207 95 352 0.0 1.0 0.00 0.00 0.00 53 1035.8
20260902201703 95 23 0.0 0.0 0.00 0.00 0.00 55 1035.9
20260902201202 95 339 0.0 0.0 0.00 0.00 0.00 50 1035.9
20260902200652 95 1 0.0 1.0 0.00 0.00 0.00 50 1035.9
20260902200147 96 18 0.0 0.0 0.00 0.00 0.00 49 1035.7
20260902195642 95 24 0.0 0.0 0.00 0.00 0.00 49 1036.0
20260902195137 96 31 0.0 0.0 0.00 0.00 0.00 47 1036.1
20260902194635 96 340 1.0 2.0 0.00 0.00 0.00 52 1036.1
20260902194131 95 109 0.0 1.0 0.00 0.00 0.00 48 1036.2
20260902193626 95 9 0.0 0.0 0.00 0.00 0.00 50 1036.5
20260902193121 95 23 0.0 0.0 0.00 0.00 0.00 52 1036.2
20260902192620 95 24 1.0 1.0 0.00 0.00 0.00 53 1036.4
20260902192118 95 35 0.0 0.0 0.00 0.00 0.00 51 1036.6
20260902191613 95 356 0.0 0.0 0.00 0.00 0.00 55 1036.7
20260902191108 95 182 2.0 3.0 0.00 0.00 0.00 53 1036.8
20260902190604 96 225 1.0 1.0 0.00 0.00 0.00 51 1036.9
20260902190059 97 351 1.0 2.0 0.00 0.00 0.00 53 1036.7
20260902185554 96 11 0.0 0.0 0.00 0.00 0.00 52 1036.8
20260902185050 95 32 0.0 0.0 0.00 0.00 0.00 51 1036.8
20260902184544 94 18 0.0 0.0 0.00 0.00 0.00 55 1037.0
20260902184039 96 27 0.0 1.0 0.00 0.00 0.00 54 1037.1
20260902183531 95 337 1.0 2.0 0.00 0.00 0.00 53 1037.1
20260902183027 94 13 0.0 0.0 0.00 0.00 0.00 55 1037.5
20260902182523 96 5 1.0 1.0 0.00 0.00 0.00 52 1037.5
20260902182019 95 19 0.0 0.0 0.00 0.00 0.00 53 1037.4
20260902181514 93 23 0.0 0.0 0.00 0.00 0.00 55 1037.5
20260902181008 93 26 1.0 2.0 0.00 0.00 0.00 57 1037.5
20260902180503 95 2 0.0 0.0 0.00 0.00 0.00 56 1037.4
20260902175959 95 22 0.0 1.0 0.00 0.00 0.00 56 1037.3
20260902175459 95 357 2.0 2.0 0.00 0.00 0.00 52 1037.5
20260902174954 95 13 0.0 0.0 0.00 0.00 0.00 55 1037.6
20260902174451 94 7 0.0 0.0 0.00 0.00 0.00 56 1037.6
20260902173946 93 24 0.0 0.0 0.00 0.00 0.00 56 1037.7
20260902173446 94 58 1.0 1.0 0.00 0.00 0.00 55 1037.7
20260902172941 94 354 0.0 1.0 0.00 0.00 0.00 54 1037.9
20260902172440 95 0 0.0 0.0 0.00 0.00 0.00 56 1038.1
20260902171935 94 1 0.0 0.0 0.00 0.00 0.00 54 1038.1
20260902171431 95 70 1.0 1.0 0.00 0.00 0.00 53 1038.0
20260902170927 95 180 2.0 2.0 0.00 0.00 0.00 54 1038.3
20260902170422 94 18 0.0 0.0 0.00 0.00 0.00 54 1038.3
20260902165917 94 331 0.0 0.0 0.00 0.00 0.00 54 1038.4
20260902165417 94 5 0.0 0.0 0.00 0.00 0.00 56 1038.6
20260902164912 93 27 0.0 0.0 0.00 0.00 0.00 56 1038.5
20260902164406 92 77 1.0 1.0 0.00 0.00 0.00 56 1038.7
20260902163906 92 13 0.0 0.0 0.00 0.00 0.00 60 1038.5
20260902163401 92 8 1.0 2.0 0.00 0.00 0.00 58 1038.6
20260902162859 92 0 0.0 0.0 0.00 0.00 0.00 57 1038.7
20260902162354 93 6 0.0 0.0 0.00 0.00 0.00 61 1038.6
20260902161854 92 329 0.0 1.0 0.00 0.00 0.00 57 1038.8
20260902161349 92 46 0.0 0.0 0.00 0.00 0.00 57 1038.8
20260902160846 91 168 1.0 1.0 0.00 0.00 0.00 60 1038.9
20260902160341 91 13 0.0 0.0 0.00 0.00 0.00 61 1039.0
20260902155839 91 359 0.0 0.0 0.00 0.00 0.00 61 1039.1
20260902155338 91 351 0.0 0.0 0.00 0.00 0.00 57 1039.2
20260902154833 92 25 0.0 0.0 0.00 0.00 0.00 58 1039.1
20260902154329 92 5 0.0 0.0 0.00 0.00 0.00 59 1039.3
20260902153827 91 16 0.0 0.0 0.00 0.00 0.00 59 1039.3
20260902153327 91 245 0.0 0.0 0.00 0.00 0.00 58 1039.2
20260902152823 91 17 0.0 0.0 0.00 0.00 0.00 61 1038.9
20260902152319 90 208 0.0 0.0 0.00 0.00 0.00 63 1039.1
20260902151814 90 24 0.0 0.0 0.00 0.00 0.00 66 1039.1
20260902151309 89 23 0.0 0.0 0.00 0.00 0.00 67 1039.1
20260902150803 89 34 0.0 0.0 0.00 0.00 0.00 67 1039.3
20260902150300 89 280 0.0 0.0 0.00 0.00 0.00 70 1039.0
20260902145759 89 305 0.0 0.0 0.00 0.00 0.00 70 1039.1
20260902145254 89 1 0.0 0.0 0.00 0.00 0.00 71 1039.2
20260902144750 89 334 0.0 0.0 0.00 0.00 0.00 70 1039.1
20260902144246 90 347 0.0 0.0 0.00 0.00 0.00 70 1039.0
20260902143740 90 14 0.0 0.0 0.00 0.00 0.00 69 1039.2
20260902143236 89 351 0.0 0.0 0.00 0.00 0.00 71 1038.8
20260902142731 87 357 0.0 0.0 0.00 0.00 0.00 72 1039.0
20260902142227 86 11 0.0 0.0 0.00 0.00 0.00 73 1039.0
20260902141721 86 341 0.0 0.0 0.00 0.00 0.00 78 1038.9
20260902141217 85 338 0.0 0.0 0.00 0.00 0.00 79 1039.1
20260902140706 84 359 0.0 0.0 0.00 0.00 0.00 81 1038.9
20260902140207 83 7 0.0 0.0 0.00 0.00 0.00 83 1039.0
20260902135706 83 355 0.0 0.0 0.00 0.00 0.00 83 1039.0
20260902135202 83 353 0.0 0.0 0.00 0.00 0.00 84 1038.9
20260902134656 82 4 0.0 0.0 0.00 0.00 0.00 83 1039.0
20260902134156 81 350 0.0 0.0 0.00 0.00 0.00 87 1039.2
20260902133652 80 329 0.0 0.0 0.00 0.00 0.00 88 1039.3
20260902133151 79 336 0.0 0.0 0.00 0.00 0.00 90 1039.3
20260902132647 79 335 0.0 0.0 0.00 0.00 0.00 91 1039.2
20260902132142 78 305 0.0 0.0 0.00 0.00 0.00 92 1039.1
20260902131638 78 337 0.0 0.0 0.00 0.00 0.00 92 1039.1
20260902131133 78 334 0.0 0.0 0.00 0.00 0.00 92 1039.2
20260902130629 78 328 0.0 0.0 0.00 0.00 0.00 93 1039.1
20260902130124 77 334 0.0 0.0 0.00 0.00 0.00 94 1039.0
20260902125620 77 325 0.0 0.0 0.00 0.00 0.00 94 1038.9
20260902125114 77 292 0.0 0.0 0.00 0.00 0.00 94 1039.0
20260902124612 76 310 0.0 0.0 0.00 0.00 0.00 95 1039.2
20260902124111 76 298 0.0 0.0 0.00 0.00 0.00 96 1038.9
20260902123607 76 280 0.0 0.0 0.00 0.00 0.00 96 1039.1
20260902123101 76 294 0.0 0.0 0.00 0.00 0.00 96 1039.0
20260902122556 75 343 0.0 0.0 0.00 0.00 0.00 96 1038.8
20260902122051 75 342 0.0 0.0 0.00 0.00 0.00 97 1038.8
20260902121546 75 328 0.0 0.0 0.00 0.00 0.00 97 1038.9
20260902121041 75 309 0.0 0.0 0.00 0.00 0.00 97 1038.7
20260902120537 75 326 0.0 0.0 0.00 0.00 0.00 97 1038.8
20260902120032 75 338 0.0 0.0 0.00 0.00 0.00 97 1038.8
20260902115527 75 338 0.0 0.0 0.00 0.00 0.00 97 1038.6
20260902115024 75 339 0.0 0.0 0.00 0.00 0.00 97 1038.7
20260902114519 75 339 0.0 0.0 0.00 0.00 0.00 97 1038.5
20260902114019 75 339 0.0 0.0 0.00 0.00 0.00 97 1038.6
20260902113514 75 339 0.0 0.0 0.00 0.00 0.00 97 1038.6
20260902113010 75 339 0.0 0.0 0.00 0.00 0.00 97 1038.6
20260902112505 75 340 0.0 0.0 0.00 0.00 0.00 97 1038.6
20260902112001 75 341 0.0 0.0 0.00 0.00 0.00 96 1038.5
20260902111457 75 340 0.0 0.0 0.00 0.00 0.00 96 1038.4
20260902110953 75 332 0.0 0.0 0.00 0.00 0.00 96 1038.2
20260902110448 75 347 0.0 0.0 0.00 0.00 0.00 96 1038.5
20260902105943 75 346 0.0 0.0 0.00 0.00 0.00 96 1038.3
20260902105433 75 346 0.0 0.0 0.00 0.00 0.00 96 1038.2
20260902104932 75 347 0.0 0.0 0.00 0.00 0.00 96 1038.1
20260902104429 75 350 0.0 0.0 0.00 0.00 0.00 96 1038.1
20260902103923 75 350 0.0 0.0 0.00 0.00 0.00 96 1038.0
20260902103418 75 351 0.0 0.0 0.00 0.00 0.00 96 1038.1
20260902102913 75 352 0.0 0.0 0.00 0.00 0.00 96 1038.1
20260902102411 75 352 0.0 0.0 0.00 0.00 0.00 95 1037.9
20260902101906 75 351 0.0 0.0 0.00 0.00 0.00 95 1037.9
20260902101400 75 351 0.0 0.0 0.00 0.00 0.00 95 1037.9
20260902100900 76 351 0.0 0.0 0.00 0.00 0.00 95 1037.9
20260902100354 75 351 0.0 0.0 0.00 0.00 0.00 95 1037.7
20260902095849 75 351 0.0 0.0 0.00 0.00 0.00 95 1038.0
20260902095349 75 352 0.0 0.0 0.00 0.00 0.00 95 1038.0
20260902094843 76 352 0.0 0.0 0.00 0.00 0.00 95 1037.9
20260902094340 76 350 0.0 0.0 0.00 0.00 0.00 94 1037.6
20260902093838 76 350 0.0 0.0 0.00 0.00 0.00 94 1037.7
20260902093334 76 352 0.0 0.0 0.00 0.00 0.00 94 1037.6
20260902092832 76 352 0.0 0.0 0.00 0.00 0.00 94 1037.6
20260902092329 76 352 0.0 0.0 0.00 0.00 0.00 94 1037.3
20260902091823 76 351 0.0 0.0 0.00 0.00 0.00 94 1037.5
20260902091319 76 351 0.0 0.0 0.00 0.00 0.00 94 1037.6
20260902090815 76 351 0.0 0.0 0.00 0.00 0.00 94 1037.5
20260902090314 76 352 0.0 0.0 0.00 0.00 0.00 94 1037.4
20260902085808 76 352 0.0 0.0 0.00 0.00 0.00 94 1037.3
20260902085306 76 352 0.0 0.0 0.00 0.00 0.00 94 1037.3
20260902084758 76 351 0.0 0.0 0.00 0.00 0.00 94 1037.3
20260902084255 76 351 0.0 0.0 0.00 0.00 0.00 94 1037.2
20260902083749 76 351 0.0 0.0 0.00 0.00 0.00 94 1037.3
20260902083244 76 351 0.0 0.0 0.00 0.00 0.00 94 1037.2
20260902082739 76 351 0.0 0.0 0.00 0.00 0.00 93 1037.1
20260902082236 76 351 0.0 0.0 0.00 0.00 0.00 93 1037.2
20260902081732 76 351 0.0 0.0 0.00 0.00 0.00 93 1037.2
20260902081227 76 351 0.0 0.0 0.00 0.00 0.00 93 1037.3
20260902080722 76 351 0.0 0.0 0.00 0.00 0.00 93 1037.0
20260902080219 76 352 0.0 0.0 0.00 0.00 0.00 93 1036.8
20260902075718 76 352 0.0 0.0 0.00 0.00 0.00 93 1037.0
20260902075215 76 352 0.0 0.0 0.00 0.00 0.00 92 1037.1
20260902074714 77 352 0.0 0.0 0.00 0.00 0.00 92 1037.2
20260902074210 77 352 0.0 0.0 0.00 0.00 0.00 92 1036.9
20260902073705 77 351 0.0 0.0 0.00 0.00 0.00 91 1037.0
20260902073201 77 351 0.0 0.0 0.00 0.00 0.00 91 1037.2
20260902072657 77 348 0.0 0.0 0.00 0.00 0.00 91 1037.2